Location: Ar Ranvel
(48.3000°N, 4.8833°W)
Time: 14:14:50
(UTC+00:00)

Cosmos 2219 Rocket - Visible Passes

Search period start: 22 October 2021 00:00
Search period end: 01 November 2021 00:00
Orbit: 828 x 846 km, 71.0° (Epoch: 22 October)

Date Brightness Start Highest point End Pass type
(mag) Time Alt. Az. Time Alt. Az. Time Alt. Az.
22 Oct 4.6 03:51:22 10° N 03:55:16 19° NE 03:59:11 10° E visible
22 Oct 2.4 05:34:31 10° NNW 05:40:12 77° ENE 05:45:52 10° SSE visible
23 Oct 4.6 03:35:01 10° N 03:38:47 18° NE 03:42:33 10° E visible
23 Oct 2.4 05:18:06 10° NNW 05:23:47 72° ENE 05:29:26 10° SE visible
24 Oct 4.7 03:18:40 10° N 03:22:17 17° NE 03:25:54 10° ENE visible
24 Oct 2.5 05:01:42 10° NNW 05:07:21 68° ENE 05:13:00 10° SE visible
24 Oct 3.7 19:55:40 10° SSW 19:57:34 22° S 19:57:34 22° S visible
25 Oct 4.7 03:02:19 10° N 03:05:47 16° NE 03:09:16 10° ENE visible
25 Oct 2.6 04:45:17 10° NNW 04:50:56 63° ENE 04:56:33 10° SE visible
25 Oct 2.7 19:39:18 10° SSW 19:43:11 44° S 19:43:11 44° S visible
25 Oct 4.8 21:24:26 10° WSW 21:25:01 12° W 21:25:01 12° W visible
26 Oct 4.8 02:47:06 13° N 02:49:17 15° NE 02:52:36 10° ENE visible
26 Oct 2.7 04:28:53 10° NNW 04:34:30 59° ENE 04:40:06 10° SE visible
26 Oct 3.2 06:13:31 10° NW 06:18:03 25° WSW 06:22:34 10° SSW visible
26 Oct 2.1 19:22:55 10° S 19:28:23 58° ESE 19:28:40 58° E visible
26 Oct 4.2 21:07:53 10° WSW 21:10:29 22° W 21:10:29 22° W visible
27 Oct 4.8 02:32:09 15° NNE 02:32:48 15° NE 02:35:56 10° ENE visible
27 Oct 2.8 04:13:57 18° NNW 04:18:04 56° ENE 04:23:38 10° SE visible
27 Oct 3.1 05:57:01 10° NW 06:01:41 27° WSW 06:06:20 10° SSW visible
27 Oct 2.2 19:06:34 10° S 19:11:59 54° ESE 19:13:56 37° NE visible
27 Oct 3.8 20:51:20 10° WSW 20:55:44 30° WNW 20:55:44 30° WNW visible
28 Oct 4.9 02:17:27 13° NE 02:17:27 13° NE 02:19:14 10° ENE visible
28 Oct 2.9 03:59:15 32° N 04:01:38 52° ENE 04:07:10 10° SE visible
28 Oct 3.0 05:41:04 12° NW 05:45:18 29° WSW 05:50:06 10° SSW visible
28 Oct 2.3 18:50:14 10° S 18:55:36 51° ESE 18:58:58 22° NE visible
28 Oct 3.7 20:34:48 10° WSW 20:39:47 32° NW 20:40:46 30° NNW visible
29 Oct 3.0 03:44:45 48° NE 03:45:12 49° NE 03:50:41 10° SE visible
29 Oct 2.9 05:26:35 23° WNW 05:28:56 31° WSW 05:33:50 10° SSW visible
29 Oct 2.4 18:33:54 10° S 18:39:12 47° ESE 18:43:48 14° NE visible
29 Oct 3.6 20:18:16 10° WSW 20:23:20 34° NW 20:25:33 25° N visible
30 Oct 3.5 03:30:23 37° E 03:30:23 37° E 03:34:12 10° SE visible
30 Oct 2.8 05:12:14 33° W 05:12:34 33° WSW 05:17:35 10° SSW visible
30 Oct 2.5 18:17:34 10° S 18:22:49 44° ESE 18:28:08 10° NE visible
30 Oct 3.5 20:01:44 10° WSW 20:06:53 36° NW 20:10:10 20° N visible
30 Oct 5.1 21:51:17 10° NW 21:51:55 11° NW 21:51:55 11° NW visible
31 Oct 4.3 03:16:05 19° ESE 03:16:05 19° ESE 03:17:43 10° SE visible
31 Oct 3.1 04:57:56 29° SW 04:57:56 29° SW 05:01:18 10° S visible
31 Oct 2.6 18:01:15 10° S 18:06:26 41° ESE 18:11:40 10° NE visible
31 Oct 3.4 19:45:14 10° WSW 19:50:26 38° NW 19:54:36 15° N visible
31 Oct 5.0 21:34:25 10° NW 21:36:08 11° NNW 21:36:20 11° NNW visible
